GFSGBSN_con_lsi_105.txt.gz
Lid_Strength_Index
-1 -1 -1 -1 -1 -1 -1 0 1 1 1 0 -0 -0 -1 -1 -1 -1 -1 -1 -1 -1 -1 -1 -0 -0 4 5 5 4 -0 0 3 5 5 5 7 7 9 10 10 14 13 12 10 10 10
-1 -1 -1 -1 -1 -1 -0 1 1 1 0 -0 0 -0 -0 -0 -1 -1 -1 -1 -1 -1 -1 -1 0 1 6 8 3 3 2 3 5 7 6 5 6 6 8 10 11 11 12 13 11 11 11
-1 -1 -1 -1 -1 -0 0 1 1 1 1 1 0 -0 -0 -0 -1 -1 -1 -1 -1 -1 -1 -1 -0 4 6 6 5 3 2 2 4 6 6 5 5 6 8 9 8 10 12 13 14 12 12
-0 -1 -1 -1 -1 -0 0 2 2 2 2 1 2 -0 -0 -0 -0 -1 -1 -1 -1 -1 -1 -1 -1 5 8 5 5 2 3 4 4 6 7 5 4 6 8 8 10 12 14 17 14 12 12
-0 -1 -1 -0 -1 -0 -0 1 2 2 2 2 1 0 -0 -0 -0 -0 -1 -0 -0 -1 -1 -1 4 7 10 4 6 5 4 4 4 5 6 7 5 9 9 13 14 14 17 18 16 14 13
-0 -0 -1 -1 -1 -1 -0 1 2 3 2 2 1 1 -0 -0 -0 -0 -0 -1 -1 -1 1 3 4 10 8 9 7 5 7 4 6 7 9 10 10 12 12 14 18 17 18 17 17 15 14
-0 -0 -0 -0 -1 -1 -0 1 3 3 3 2 1 1 -0 -0 -0 -1 0 1 5 6 6 9 9 10 10 8 6 7 7 7 7 7 12 12 14 15 13 12 14 15 15 16 16 14 13
-0 0 0 -0 0 -0 0 1 2 3 3 3 1 1 -0 -0 -0 -0 1 5 6 6 9 7 7 8 8 8 10 9 7 10 10 12 11 13 16 13 12 14 14 15 16 17 16 13 14
-0 0 0 0 0 -0 1 1 2 2 2 3 3 1 -0 -0 -0 1 3 6 4 4 10 9 7 8 8 8 10 10 8 10 11 13 13 15 14 13 13 14 15 16 15 17 16 14 14
-0 -0 0 1 0 0 1 1 2 2 2 3 3 2 0 -0 2 2 5 4 3 5 13 12 10 8 7 8 11 8 8 10 12 13 13 13 12 13 14 14 14 16 15 15 15 15 17
-1 -0 -0 0 1 0 1 1 2 3 3 3 3 2 1 -0 2 4 4 4 4 6 20 11 10 6 7 9 9 10 8 11 13 13 13 15 14 14 15 14 14 15 14 14 15 16 17
-1 -1 -0 -0 1 1 1 1 2 3 3 3 3 2 3 1 1 2 2 3 6 13 20 13 10 10 10 10 10 9 9 10 11 13 13 13 12 12 13 13 13 13 14 15 16 17 19
-1 -1 -1 -1 0 1 1 1 2 3 3 3 3 3 3 1 4 2 2 6 15 20 13 15 13 11 12 13 12 11 11 13 15 17 16 15 15 14 12 14 14 14 16 19 20 20 21
-1 -1 -1 -1 -1 -0 0 1 1 3 3 3 3 3 2 1 1 2 4 10 22 15 15 13 12 11 13 12 13 12 12 14 13 15 16 17 18 15 13 13 15 16 15 20 24 24 22
-0 -1 -1 -1 -1 -1 -0 1 1 2 2 2 3 3 2 2 1 2 7 15 16 15 13 13 13 14 15 13 13 14 13 13 13 14 17 17 17 14 13 13 12 16 17 14 19 24 21
-0 -0 -1 -1 -1 -1 0 0 1 2 2 3 6 6 5 2 2 4 10 13 14 11 11 11 15 14 16 14 15 15 15 12 12 12 13 15 17 14 14 13 13 14 13 16 18 23 24
-0 -0 -0 -1 -1 -1 -0 0 1 2 2 3 9 9 7 6 3 7 13 13 13 10 10 12 14 15 15 15 14 14 15 14 11 13 13 14 15 16 13 14 15 16 16 16 15 18 21
-0 0 -0 -0 -1 -0 0 1 1 2 1 4 10 13 7 7 10 10 12 12 10 11 10 11 12 13 14 13 15 14 15 13 10 12 14 13 15 17 16 14 13 14 14 13 16 19 20
-1 0 1 -0 -1 -0 -0 0 1 1 1 6 11 13 8 8 13 13 10 11 11 11 11 12 13 12 12 12 14 14 14 11 10 11 13 12 15 19 16 14 14 15 15 14 14 16 18
-1 -0 1 0 -0 -0 0 0 1 2 1 5 9 14 12 11 12 11 12 12 12 10 10 10 12 11 12 13 12 13 13 11 10 10 8 9 13 15 17 16 14 16 15 15 14 16 18
-1 -0 0 1 1 -0 -0 -0 0 1 1 5 9 13 13 15 14 11 10 11 13 12 10 10 12 12 12 14 13 14 12 11 10 9 10 10 15 15 15 14 13 13 13 13 14 13 15
-1 -1 0 1 0 0 -0 -0 0 1 2 8 12 12 11 13 13 11 11 12 12 13 12 12 13 12 12 14 13 14 12 12 12 12 11 12 17 15 16 14 13 14 13 13 13 13 14
-1 -1 -1 -0 0 0 0 0 0 0 3 10 9 7 10 12 12 12 12 12 12 12 11 11 11 11 12 11 10 10 9 10 10 11 12 12 16 18 19 15 15 16 15 14 13 12 13
-1 -0 -0 -0 0 -0 0 0 -0 0 3 7 8 9 12 14 13 13 11 11 11 12 12 11 10 10 10 9 9 8 9 10 10 11 11 13 13 15 19 16 19 15 13 13 13 13 12
-0 -0 -0 -0 -0 -0 0 -0 -0 0 1 7 8 9 11 15 12 13 12 11 10 10 12 11 11 11 10 10 12 13 13 13 13 12 13 13 14 18 17 22 17 14 14 14 14 13 12
-0 -0 -1 -1 -0 -0 0 0 -0 0 1 6 7 7 11 13 13 12 13 11 12 13 14 13 11 10 10 12 12 16 17 17 17 15 12 13 13 14 24 18 19 14 13 12 11 15 10
-0 -1 -1 -1 -0 -0 1 1 0 0 1 5 7 7 10 14 12 11 13 13 12 12 13 13 13 12 12 12 14 15 16 15 16 17 16 16 17 16 25 22 20 16 14 12 16 15 14
-0 -1 -1 -1 -1 0 1 1 1 0 1 4 5 6 10 13 11 11 10 11 12 12 14 13 12 13 13 13 13 14 16 15 16 15 15 15 16 18 21 23 19 14 15 14 13 15 14
-1 -1 -0 -1 -0 0 0 1 1 0 1 2 6 5 7 11 12 9 9 9 9 10 11 12 13 13 11 12 13 13 14 15 17 16 14 14 13 15 15 15 13 14 14 13 13 14 14

GFSGBSN_con_lsi_111.txt.gz
Lid_Strength_Index
-1 -1 -1 -1 -1 -1 -1 -1 -1 -1 -1 -0 0 0 1 1 -1 -1 -1 -1 -1 -1 -1 -0 -0 -1 3 7 7 2 0 1 3 3 5 7 8 8 11 10 10 12 12 11 11 13 13
-1 -1 -1 -1 -1 -1 -1 -1 -1 -1 -1 -0 0 1 1 1 -0 -1 -1 -1 -1 -1 -1 -0 -1 -0 4 10 3 0 2 3 3 4 5 5 7 6 9 9 10 10 11 11 11 12 13
-1 -1 -1 -1 -1 -1 -1 -0 -0 -0 -0 1 1 2 2 0 -0 -0 -1 -1 -1 -1 -1 -0 -0 3 5 8 3 0 3 5 3 3 5 5 4 6 7 9 8 9 11 11 11 13 14
-1 -1 -1 -1 -1 -1 -0 -0 -0 -0 1 1 2 2 2 0 -0 -0 -0 -0 -0 -0 -0 -0 0 4 7 4 3 1 3 6 4 3 4 4 4 6 8 8 9 11 11 14 11 13 14
-1 -1 -1 -1 -1 -1 -0 -0 -0 -0 0 1 2 2 3 1 -0 -0 -0 -0 -0 -0 -1 -0 3 4 7 3 4 3 4 6 7 5 4 4 5 8 9 11 12 12 15 14 12 13 14
-1 -1 -1 -1 -1 -1 -0 -0 -0 0 2 2 2 3 3 3 0 0 -0 -0 -0 -0 1 2 3 6 7 9 5 4 4 5 8 6 8 9 8 10 11 12 17 15 15 14 13 13 15
-1 -1 -1 -1 -1 -1 -0 -0 1 1 1 3 3 2 3 3 1 -0 0 2 5 6 4 7 7 10 8 7 4 6 4 6 7 9 13 11 12 14 12 11 12 12 13 13 15 11 14
-1 -1 -1 -1 -1 -1 -1 -0 1 1 1 2 2 2 3 3 0 0 1 5 5 5 11 7 6 9 8 6 8 8 4 7 9 12 12 13 15 11 10 11 13 14 15 15 13 14 15
-1 -1 -1 -1 -1 -0 -0 -1 1 1 2 3 3 2 3 3 0 1 3 3 2 5 10 10 8 9 9 7 9 9 5 7 10 12 11 13 12 11 10 12 13 14 16 16 16 15 15
-1 -1 -1 -0 -0 0 -0 -1 0 1 3 3 3 3 3 3 2 2 4 3 3 5 14 13 10 9 9 8 11 8 6 7 9 12 11 12 10 12 12 12 11 14 13 14 16 16 18
-1 -1 -1 -0 0 -0 -1 -0 1 2 3 4 4 3 3 4 4 4 3 2 5 7 20 13 11 7 9 9 10 10 9 10 12 12 12 13 12 13 13 13 12 14 14 15 15 17 18
0 -0 -1 -0 0 0 0 1 1 2 3 4 4 4 3 4 5 2 2 4 6 14 20 14 11 12 12 12 11 11 10 10 10 12 12 12 12 12 12 12 11 12 13 14 17 18 21
-1 -1 -1 -1 0 1 0 0 1 2 3 4 4 3 4 3 6 2 3 6 14 18 13 15 14 12 13 15 13 11 13 14 14 17 17 15 16 14 11 13 12 13 15 19 20 20 21
-1 -1 -0 -1 -0 0 0 0 0 2 3 4 4 4 4 4 3 3 5 10 18 15 15 14 13 12 15 14 14 13 13 15 14 15 16 17 18 15 13 13 15 13 14 19 23 23 21
-0 -0 -0 -0 -1 -0 -0 -0 0 2 3 3 4 6 5 4 3 4 8 15 15 14 14 14 13 14 16 14 14 14 14 14 14 15 16 17 17 15 14 13 11 14 15 15 19 25 22
-0 -0 0 -0 -1 -1 -1 -0 0 1 1 3 8 6 6 3 4 6 10 14 15 13 12 12 15 14 17 15 16 16 15 13 14 14 15 15 17 15 15 13 14 13 12 16 18 24 25
-0 -0 0 -0 -0 -0 -0 -0 -0 1 1 3 9 8 7 5 4 9 13 13 13 12 11 14 16 16 15 15 16 15 15 15 12 14 14 14 15 17 14 15 16 16 15 16 15 18 22
-0 -0 -0 -0 -0 -0 -0 -0 -0 1 0 5 9 12 7 6 12 14 13 13 11 12 12 13 13 15 14 14 16 15 15 13 11 12 15 13 15 18 17 14 14 14 15 14 17 20 20
-0 -0 -0 -0 -0 -0 -0 -0 -0 0 0 6 10 12 7 6 14 14 11 11 12 12 13 13 14 13 13 13 15 14 14 11 10 11 13 13 15 20 16 15 15 16 16 13 15 17 19
-0 -0 -0 -0 -0 -0 -0 -0 0 -0 1 5 8 13 12 11 13 13 13 12 13 11 12 12 13 12 13 14 13 15 15 13 10 10 9 9 14 15 17 16 15 16 16 15 14 18 17
-0 -0 -0 -0 -0 -0 -0 -0 0 -0 -0 5 7 13 12 15 14 13 11 11 14 13 12 12 14 13 13 15 15 16 14 14 12 9 11 11 16 16 17 15 15 15 15 15 15 14 16
-0 -0 -0 -0 -0 -0 -0 -0 -0 -0 1 7 9 10 11 14 12 12 13 13 13 14 13 14 14 13 13 15 13 17 14 14 14 13 12 12 17 15 17 15 15 16 14 14 13 13 14
-0 -0 -0 -0 0 -0 -0 -0 -0 -0 3 8 7 6 10 12 13 13 12 12 12 11 11 12 13 13 14 13 11 11 10 10 11 11 12 13 16 19 17 16 16 18 15 14 14 13 13
-0 -0 -1 -0 1 -0 -0 -0 -0 0 3 6 7 8 12 15 12 13 12 11 11 11 13 12 12 12 11 9 9 10 11 12 12 12 12 13 14 19 23 20 19 15 14 13 13 12 12
-0 -0 -0 -1 -0 0 -0 -0 -0 -0 1 5 7 9 12 15 12 13 12 11 10 11 12 12 12 11 10 10 13 14 15 14 15 15 14 14 14 21 19 23 17 15 14 16 16 14 13
-1 -0 -1 -0 -0 -0 0 -0 -0 -0 1 5 6 7 10 13 13 11 13 12 11 12 13 13 11 11 10 12 13 17 17 19 20 18 16 13 12 15 23 20 21 14 13 13 12 15 10
-1 -0 -0 -0 -0 -1 0 -0 -0 -0 1 4 6 6 9 11 9 10 13 13 12 11 13 13 12 12 12 13 14 16 20 17 19 18 18 20 18 15 19 17 19 15 14 12 16 15 15
-0 -0 -0 -0 -0 -1 -0 0 0 -0 1 4 6 6 8 11 9 9 11 12 12 12 12 13 12 13 13 13 14 14 21 17 19 17 17 18 18 20 23 18 19 15 14 13 12 13 12
-0 -0 -0 -0 -1 -0 -0 -0 0 0 1 3 7 6 6 10 9 8 9 9 10 11 11 12 12 12 11 13 13 13 16 18 19 21 14 16 14 17 15 15 13 14 13 13 13 13 13

GFSGBSN_con_lsi_114.txt.gz
Lid_Strength_Index
-1 -1 -1 -2 -1 -1 -1 -1 -1 -1 -1 -1 -1 -1 1 1 1 1 1 -1 -1 -1 -1 -1 -1 -0 1 6 6 1 -1 -1 1 3 5 5 7 7 9 9 10 10 11 11 10 10 11
-1 -1 -1 -1 -1 -1 -1 -1 -1 -1 -1 -1 -1 -1 -0 1 1 1 0 -1 -1 -1 -1 -1 -1 -0 4 8 1 -0 -0 1 3 4 5 6 6 6 8 9 9 9 10 10 10 10 11
-1 -1 -1 -1 -1 -1 -1 -1 -1 -1 -1 -1 -1 -1 -0 0 2 2 1 -1 -1 -1 -1 -1 -1 2 5 5 -0 -1 0 2 2 3 5 4 4 5 6 9 7 9 11 10 10 12 13
-1 -1 -1 -1 -1 -1 -1 -1 -1 -0 -0 -1 -0 -1 0 1 2 1 1 -0 -1 -1 -1 -1 0 3 7 3 -1 0 1 2 2 3 4 3 4 6 7 6 8 9 9 11 11 12 13
-1 -1 -1 -1 -1 -1 -1 -1 -1 -1 -1 -1 -0 -0 1 2 3 2 0 -0 -0 -1 -1 -1 3 4 7 1 2 1 1 4 4 4 4 4 5 7 7 9 11 10 14 12 10 11 13
-1 -1 -1 -1 -1 -1 -1 -1 -1 -0 -0 -0 0 -0 1 3 2 1 -0 -0 -0 -0 0 1 3 7 8 6 3 2 1 2 5 6 8 8 8 9 9 11 17 15 14 12 12 11 12
-1 -1 -1 -1 -1 -1 -1 -1 -1 -0 -0 0 0 1 2 2 2 1 0 2 5 6 4 7 6 6 7 4 2 3 3 3 4 8 12 10 11 13 11 10 10 11 12 12 12 9 11
-1 -1 -1 -1 -1 -1 -1 -1 -1 -1 0 0 1 1 2 3 2 1 1 5 4 3 9 6 5 8 5 3 7 5 3 6 7 11 11 12 13 9 8 9 10 11 13 12 10 13 12
-1 -1 -1 -1 -1 -1 -1 -1 -1 -1 0 1 2 2 2 3 3 3 3 3 3 3 9 10 7 8 6 4 7 7 5 7 8 10 10 12 11 9 9 11 12 12 12 12 13 14 13
-1 -1 -1 -1 -1 -1 -1 -1 -1 -0 1 1 3 3 3 3 6 4 4 3 2 3 13 14 11 10 7 6 8 5 4 6 9 10 11 11 11 10 11 12 11 14 12 13 14 14 15
-1 -0 -1 -0 -0 -0 -0 -0 -1 0 1 2 3 3 3 3 6 4 2 2 3 4 20 14 12 7 7 7 9 9 7 7 9 10 10 11 11 10 12 11 10 13 11 12 13 14 15
-0 -0 -0 -0 -0 -0 -1 -1 -0 0 1 2 2 3 3 4 5 6 2 2 4 14 20 17 12 12 10 10 9 9 10 8 8 9 9 10 9 9 9 10 11 11 12 12 13 14 17
-0 -0 -0 -1 -0 -1 -1 -0 -0 0 1 2 3 3 4 4 7 4 3 5 14 18 14 17 16 13 12 12 11 10 11 12 13 15 14 12 11 11 9 11 10 11 12 18 19 18 18
-0 0 1 -1 -0 -0 -0 -0 -1 -0 1 1 3 3 4 4 3 4 5 10 18 15 14 13 13 13 14 12 11 11 12 13 11 11 14 16 17 13 11 10 12 12 12 17 21 20 16
-0 -0 1 -1 -0 -0 -0 -0 -0 0 1 2 3 5 5 4 4 4 13 15 15 14 13 13 13 15 15 14 12 13 12 12 11 11 13 15 15 12 11 10 10 13 14 13 16 19 18
-0 -0 1 -0 -1 -1 -0 -0 -0 0 0 1 5 6 6 4 4 7 14 14 15 11 10 11 15 14 16 14 13 12 13 10 12 11 10 12 17 14 13 10 10 11 10 15 14 19 19
-0 -0 0 0 -0 -1 -1 -0 -0 0 0 2 6 9 7 4 6 13 15 13 13 10 9 11 13 14 14 14 12 12 13 11 11 12 11 12 13 16 13 13 13 13 13 13 12 15 17
-0 -0 -0 -0 -0 -0 -1 -0 -1 0 0 3 6 12 7 5 13 13 14 12 10 10 9 12 10 12 13 12 13 13 13 12 10 11 13 12 14 16 15 13 11 10 12 12 15 17 15
-0 -0 -0 -0 -0 -0 -1 -0 -0 -0 0 4 9 11 7 6 14 14 12 12 10 11 11 11 11 11 10 12 14 12 12 10 9 10 11 12 14 17 16 13 13 13 12 11 12 13 15
-0 -0 -0 -0 -1 -0 -0 -0 -0 -0 0 3 8 12 12 9 12 13 14 13 13 9 11 11 11 10 11 12 12 13 13 12 10 9 9 10 13 14 16 15 12 14 12 11 11 14 14
-0 -0 -0 -0 -0 -0 -0 -0 -0 -0 0 3 7 12 12 14 13 12 12 13 13 13 11 10 12 11 11 13 13 13 13 12 10 9 10 10 13 13 13 13 12 12 12 12 12 12 14
-0 -0 -0 -0 -0 -0 -0 -0 -0 -0 1 6 8 10 11 12 11 11 13 13 13 12 12 12 11 10 10 12 11 14 12 12 12 11 10 11 13 13 15 13 12 13 12 12 12 12 12
-0 -0 -0 -0 -0 -0 -0 -0 -0 -0 2 6 5 6 9 12 12 12 13 13 11 11 10 10 10 10 11 10 9 9 9 10 10 11 11 11 13 14 15 14 13 15 14 13 12 11 11
-0 -0 -0 -0 -0 -0 -0 -0 -0 0 3 5 6 6 9 13 12 11 11 11 12 10 11 11 9 10 10 8 8 8 10 10 9 9 9 12 12 13 16 14 18 13 10 10 11 10 10
-0 -0 -0 0 0 -0 -0 -0 -0 0 1 4 5 6 9 13 13 12 11 11 10 10 11 11 11 10 8 9 12 13 13 13 14 12 11 10 11 14 16 16 13 13 13 12 12 12 10
-1 -0 -0 -0 -0 -0 -0 -0 -0 0 1 3 5 5 7 11 13 12 12 11 12 13 12 13 10 9 8 11 12 15 16 15 16 14 13 11 10 12 17 17 18 12 11 10 9 14 8
-1 -1 -1 -0 -0 0 -0 -0 -0 -0 1 3 5 5 6 10 10 12 12 12 11 11 13 12 12 11 10 12 14 14 15 13 16 17 15 14 13 15 15 15 14 11 11 9 14 12 9
-1 -0 -0 -1 -0 -0 -0 -0 -0 -0 1 3 5 5 6 9 10 11 11 12 12 11 12 12 11 11 12 13 13 14 14 15 14 14 14 14 14 15 14 15 17 11 12 12 9 9 9
-1 -0 -0 -0 -0 -1 -0 -0 -0 -0 1 2 5 4 5 8 10 9 10 10 10 11 11 12 11 12 9 12 12 13 15 15 14 16 13 14 11 13 12 12 11 11 10 10 10 10 9

GFSGBSN_con_lsi_117.txt.gz
Lid_Strength_Index
-1 -1 -1 -1 -1 -1 -1 -1 -1 -1 -1 -1 -1 -1 -1 -1 0 1 1 1 1 2 -1 -1 -0 -0 1 5 5 1 -1 -1 0 2 3 4 6 7 8 7 8 9 10 11 10 10 10
-1 -1 -1 -1 -1 -1 -1 -1 -1 -1 -1 -1 -1 -1 -1 -1 -1 1 1 1 0 1 -1 -1 -0 -0 3 8 0 0 1 1 2 3 4 3 5 5 7 8 8 8 9 9 10 10 11
-1 -1 -1 -1 -1 -1 -1 -1 -1 -1 -1 -1 -1 -1 -1 -1 -1 1 1 2 1 1 -0 -1 -1 2 5 5 1 0 1 1 2 3 5 3 4 5 6 9 8 8 11 10 10 12 12
-1 -1 -1 -1 -1 -1 -1 -1 -1 -1 -1 -1 -1 -1 -1 -1 0 1 1 1 1 0 -1 -1 -0 3 6 1 -0 1 0 1 1 2 3 3 4 6 7 7 8 9 10 13 10 10 11
-1 -1 -1 -1 -1 -1 -1 -1 -1 -1 -1 -1 -1 -1 -1 -1 -0 1 2 1 2 -0 -1 -1 2 5 8 2 2 1 0 3 2 3 3 3 5 7 8 10 11 10 14 12 11 10 11
-1 -1 -1 -1 -1 -1 -1 -1 -1 -1 -1 -1 -1 -0 -0 -0 0 1 2 1 1 -0 0 0 2 8 7 6 2 2 0 1 4 5 6 7 8 10 10 11 17 15 13 12 11 9 10
-1 -1 -1 -1 -1 -1 -1 -1 -1 -1 -1 -0 -1 -0 -0 0 1 2 1 3 6 6 4 7 7 7 6 3 2 3 2 3 4 6 10 10 12 14 11 9 9 10 11 12 10 9 9
-1 -1 -0 -0 -1 -0 -1 -1 -1 -1 -1 -1 -0 -0 0 1 1 2 2 5 5 3 9 5 5 5 5 3 6 4 2 6 8 11 10 11 14 10 9 9 9 10 12 12 10 11 10
-1 -0 -0 -0 -0 -0 -1 -1 -1 -1 -1 -0 -0 -0 -0 -0 1 3 5 5 1 1 9 8 6 6 6 4 6 6 4 5 9 12 11 13 10 9 9 10 11 11 12 12 13 10 11
-0 -0 -0 -0 -0 -1 -0 -0 -0 -0 -0 -0 -0 0 0 0 4 4 7 1 1 1 12 12 9 8 6 6 8 3 3 5 8 11 10 11 9 10 10 11 10 14 10 10 13 13 15
-0 -0 -0 -0 -0 -0 -0 -1 -0 -0 -0 -0 -0 -0 0 1 4 6 5 1 1 3 20 11 11 7 6 8 7 7 3 6 9 9 10 12 11 11 12 11 9 11 11 12 13 14 15
-0 -0 -0 -0 -0 -0 -0 -0 -1 -0 -1 -0 0 0 1 2 3 4 3 2 4 14 20 15 11 11 10 9 8 7 9 7 6 8 9 10 7 8 9 9 10 9 11 13 14 15 18
-0 -0 -0 -0 -0 -0 -0 -0 -1 -1 -0 -0 0 1 2 2 6 3 5 5 14 19 14 17 15 12 11 11 10 9 11 11 12 15 14 11 10 9 7 12 11 11 12 18 19 19 19
-0 -0 -0 -0 -0 -0 -1 -1 -1 -1 -1 -0 -0 1 3 4 3 4 9 10 18 15 14 13 13 12 14 11 11 10 11 12 9 9 13 15 17 11 8 9 12 12 12 16 21 20 16
-0 -0 -0 0 -0 -1 -0 -1 -0 -1 -0 -0 -0 2 4 4 4 7 13 16 16 13 13 13 13 15 15 12 12 11 12 12 10 9 13 14 14 10 9 8 9 12 15 10 15 17 16
-0 -0 -0 0 -0 -0 -0 -0 -0 -0 -0 -0 2 4 6 4 4 10 14 14 13 9 11 11 15 13 16 15 14 13 13 10 10 8 7 10 16 11 11 9 8 10 9 14 13 20 20
-0 -0 -0 -0 -0 -0 -0 -0 -0 -0 -0 -0 3 7 6 5 7 13 15 14 13 9 9 10 12 13 13 14 12 13 13 10 8 10 9 9 13 14 12 12 13 13 12 12 11 13 18
-0 -0 0 0 -0 -0 -0 -0 -0 -0 -0 1 4 10 6 5 12 13 13 13 11 10 8 9 9 10 12 12 13 13 13 10 7 9 12 10 12 16 14 12 10 10 11 11 15 16 13
-0 -0 -0 0 -0 -0 -0 -0 -0 -0 -0 2 7 8 6 6 14 13 13 12 11 10 9 10 10 9 9 11 14 11 11 8 8 10 11 11 14 17 16 13 12 12 11 10 10 12 16
-0 -0 -0 -0 -0 -0 -0 -0 -0 -0 -0 2 6 11 10 9 10 12 14 13 13 9 9 9 10 9 10 11 11 12 11 10 9 9 9 10 13 14 16 15 13 15 13 11 11 14 14
-0 -0 -0 -0 -0 -0 -0 -0 -0 -0 0 2 6 9 10 13 12 11 13 12 13 13 11 9 11 11 11 14 13 13 13 13 10 9 10 10 14 13 12 12 12 13 13 11 12 12 13
-0 -0 -0 -0 -0 -0 -0 -0 -0 -0 1 3 8 9 9 11 11 11 13 13 13 13 11 11 11 11 11 13 12 13 12 12 12 10 11 10 14 13 15 13 12 13 12 11 12 12 11
-0 -0 -0 -0 -0 -0 -0 -0 -0 -0 1 4 5 6 7 11 11 12 13 13 12 10 10 9 9 10 10 10 9 9 9 10 10 11 11 12 13 14 16 13 14 15 14 12 12 11 11
-0 -0 -0 -0 -0 -0 -0 -0 -0 -0 2 3 4 5 8 12 11 11 11 11 11 11 11 10 8 9 9 7 8 8 9 9 10 10 9 12 13 14 16 14 18 13 9 10 11 10 9
-0 -0 -0 -0 -0 -0 -0 -0 -0 1 1 3 4 5 7 12 11 11 10 11 11 10 11 11 10 9 7 9 12 13 13 13 14 10 9 9 11 15 17 16 13 12 11 11 12 12 9
-0 -0 -0 -0 -0 -0 -0 -0 -0 0 1 2 4 4 6 10 13 11 11 10 11 13 12 13 10 8 7 10 13 15 16 14 15 14 12 11 10 12 15 16 18 13 10 9 9 14 8
-0 -0 -0 -0 -0 -0 -0 -0 -0 0 1 2 4 4 5 10 11 11 12 11 10 11 12 12 13 12 10 12 14 14 16 12 15 16 16 14 14 15 15 16 14 11 10 9 14 13 9
-0 -0 -0 -0 -0 -0 -0 -0 -0 0 1 2 4 3 5 9 11 11 11 12 11 10 12 12 11 11 13 13 14 14 14 13 13 12 13 14 14 15 14 16 17 9 10 12 9 9 9
-0 -1 -0 -0 -0 -0 -0 -0 -0 0 1 1 4 3 3 8 10 9 10 10 11 12 11 12 11 12 8 12 12 13 14 13 13 15 12 14 11 13 12 12 10 9 9 8 8 8 9

GFSGBSN_con_lsi_123.txt.gz
Lid_Strength_Index
-1 -1 -1 -1 -1 -1 -1 -1 -1 -1 -1 -1 -1 -1 -1 -1 -1 -1 -1 -1 -1 -1 -1 -1 -1 -0 2 5 6 0 -1 -1 -0 2 4 4 6 7 9 8 8 9 8 10 10 10 11
-1 -1 -1 -1 -1 -1 -1 -1 -1 -1 -1 -1 -1 -1 -1 -1 -1 -1 -1 -1 -1 -1 -1 -1 -1 -0 3 9 1 -0 -0 1 2 3 4 4 5 5 7 8 9 8 8 10 10 10 12
-1 -1 -1 -1 -0 -1 -1 -1 -1 -1 -1 -1 -1 -1 -1 -1 -1 -1 -1 -1 -1 -1 -1 -1 -1 1 5 6 1 0 0 2 2 2 5 3 3 5 6 8 7 7 10 10 11 11 12
-1 -1 -1 -0 -0 -0 -0 -1 -1 -1 -1 -1 -1 -1 -1 -1 -1 -1 -1 -1 -1 -1 -1 -1 -1 1 8 1 1 1 1 3 3 3 3 2 2 5 6 6 8 9 10 13 10 11 12
-1 -1 -1 -0 -1 -0 -0 -0 -1 -1 -1 -1 -1 -1 -1 -1 -1 -1 -1 -1 -1 -1 -1 -1 1 3 8 -0 3 2 1 3 4 3 3 2 3 6 7 10 12 10 15 13 12 11 13
-1 -1 -1 -0 0 -0 -0 -0 -0 -1 -1 -1 -1 -1 -1 -1 -1 -1 -1 -1 -1 -1 -0 -0 1 6 6 6 3 3 1 2 4 4 6 6 7 10 10 12 17 15 14 12 13 12 13
-1 -1 -1 -0 -0 -0 -0 -0 -0 -0 -1 -1 -1 -1 -1 -1 -1 -1 -0 1 5 6 4 7 6 7 5 4 1 3 2 3 4 6 10 8 11 14 12 10 10 11 13 13 12 11 13
-1 -1 -0 -0 0 -0 -0 -0 -0 -1 -1 -1 -1 -1 -1 -1 -1 -1 1 4 4 3 9 4 4 5 4 3 7 5 2 7 8 11 9 11 13 10 9 9 11 11 13 13 11 11 12
-1 -1 -0 -0 0 -0 -0 -0 -0 -0 -0 -1 -1 -1 -1 -1 -1 0 2 3 1 1 8 7 5 6 5 4 7 7 4 6 9 10 11 12 11 8 10 11 12 13 13 13 12 12 12
-0 -0 -0 -0 1 -0 -0 -0 -0 -0 -0 -0 -1 -1 -1 -1 2 3 4 1 0 1 12 11 9 6 5 5 9 4 3 6 8 11 10 11 9 10 11 12 11 15 11 12 12 13 17
-0 -0 -0 -0 -0 0 0 -0 -0 -0 -0 -0 -0 -1 -1 -1 3 5 2 -0 0 3 20 10 9 4 5 8 7 7 3 6 10 10 10 12 11 12 13 12 10 13 10 12 13 16 16
-0 -0 -0 0 0 0 -0 -0 -0 -0 -0 -0 -0 -1 -1 1 1 1 1 1 3 14 20 13 9 10 10 9 8 7 7 7 6 10 9 10 8 9 10 9 9 11 12 12 14 14 19
-0 -0 0 0 0 0 -0 -0 -0 -0 -0 -0 -0 -1 0 1 4 1 2 5 14 18 11 14 13 11 11 12 11 10 11 11 13 15 15 12 11 9 8 12 11 11 13 19 20 20 20
1 0 0 0 0 0 -0 -0 -0 -0 -0 -0 -0 -0 -0 0 1 3 5 12 18 14 14 11 11 11 13 11 11 11 12 13 11 11 14 16 18 12 9 11 13 12 13 18 23 22 19
-0 -0 0 0 0 0 -0 -0 -0 -0 -0 -0 -0 3 2 1 1 3 10 15 15 13 11 12 12 14 14 12 12 12 12 13 11 10 14 15 16 11 9 9 10 13 15 13 19 24 21
0 0 -0 0 0 -0 -0 -0 -0 -0 -0 -0 5 5 4 2 2 4 11 14 13 10 11 10 15 13 16 14 14 13 13 10 12 10 10 13 17 11 10 10 10 11 11 16 17 23 24
-0 -0 -0 -0 -0 -0 -0 -0 -0 -0 -0 0 5 9 3 2 3 8 14 13 11 9 10 12 13 14 13 14 13 14 13 10 10 10 10 13 15 15 11 13 14 13 13 13 14 17 21
-0 -0 -0 -0 -0 -0 -0 -0 -0 -0 -0 2 7 11 3 1 10 10 13 11 8 10 9 11 10 11 13 12 13 13 14 11 9 9 12 13 15 17 15 13 10 11 12 13 16 18 17
-0 -0 -0 -0 -0 -0 -0 -0 -0 -0 -0 5 10 8 2 3 12 13 10 11 9 11 12 12 12 10 10 12 14 12 11 10 9 10 12 12 16 18 17 15 13 13 12 11 13 15 17
-0 -0 -0 -0 -0 -0 -0 -0 -0 -0 -0 5 8 11 8 6 7 11 12 12 12 9 11 11 12 9 10 12 11 12 12 10 9 9 10 11 14 16 17 15 14 15 14 13 14 18 18
-0 -0 -0 -0 -0 -0 -0 -0 -0 -0 -0 5 9 10 9 12 10 10 11 11 12 13 10 10 12 11 11 13 12 12 11 10 9 9 11 12 17 15 14 14 13 13 13 12 13 13 14
0 0 -0 -0 -0 -0 -0 -0 -0 -0 -0 6 10 8 8 9 9 10 11 13 13 13 12 12 13 11 10 12 12 13 11 11 11 11 11 12 17 16 18 14 13 13 12 11 12 12 13
1 0 -0 -0 -0 -0 -0 -0 -0 -0 1 7 7 7 8 9 10 12 13 12 12 11 11 10 10 11 11 10 9 8 8 10 9 10 12 14 16 17 21 16 15 18 14 13 12 11 12
1 1 -0 -0 -0 -0 -0 -0 -0 -0 1 5 7 7 9 12 10 12 11 10 12 12 13 10 9 11 8 7 7 8 10 10 9 10 9 15 15 17 19 16 22 16 12 11 11 11 10
0 0 -0 -0 -0 -0 -0 -0 -0 1 0 5 6 7 8 11 11 10 11 11 12 11 13 12 10 8 7 9 13 15 15 14 15 13 11 12 15 17 19 23 19 17 15 13 13 13 10
1 0 0 -0 -0 -0 -0 -0 -0 0 1 5 7 6 6 11 11 10 11 11 13 13 13 13 10 8 7 11 15 18 18 17 17 16 14 12 12 16 18 20 22 17 14 11 12 16 11
1 1 -0 -0 -0 -0 -0 -0 -0 -0 0 5 7 5 7 10 10 11 12 12 11 12 13 14 13 11 11 14 16 17 18 16 17 18 17 16 15 17 17 20 18 16 14 11 19 16 13
0 1 -0 -0 -0 -0 -0 0 0 0 1 5 7 5 8 10 11 10 11 13 13 12 13 13 12 13 13 14 15 15 17 18 19 16 15 16 17 17 18 21 19 14 13 14 13 14 14
-0 0 0 -0 -0 -0 -0 -0 0 0 1 3 8 5 5 10 10 9 10 10 12 13 14 12 13 13 11 14 14 15 20 18 19 18 14 16 14 16 15 15 14 14 13 13 12 13 13